Total_Precipitation_Accumulation
0.48 0.66 0.69 0.73 0.51 0.48 0.43 0.38 0.33 0.32 0.27 0.22 0.21 0.21 0.25 0.29 0.33 0.35 0.35 0.34 0.37 0.52 0.73 0.79 0.71 0.66 0.64 0.60 0.56 0.54 0.50 0.49 0.46 0.41 0.35 0.28 0.25 0.25 0.26 0.27 0.27 0.26 0.25
0.68 0.91 0.96 0.93 0.73 0.69 0.72 0.72 0.67 0.53 0.44 0.43 0.38 0.36 0.38 0.46 0.51 0.49 0.49 0.46 0.44 0.51 0.71 0.83 0.87 0.87 0.83 0.78 0.72 0.67 0.64 0.61 0.58 0.52 0.46 0.41 0.38 0.38 0.36 0.33 0.32 0.30 0.27
1.01 1.03 1.21 1.18 0.99 0.95 0.92 0.84 0.87 0.84 0.72 0.65 0.58 0.52 0.58 0.64 0.63 0.66 0.68 0.69 0.61 0.61 0.69 0.79 0.84 0.87 0.89 0.89 0.84 0.80 0.78 0.72 0.66 0.58 0.54 0.52 0.51 0.52 0.49 0.45 0.42 0.39 0.35
1.39 1.35 1.35 1.33 1.24 1.24 1.36 1.35 1.19 1.12 1.07 0.96 0.88 0.81 0.77 0.81 0.76 0.76 0.71 0.74 0.82 0.71 0.63 0.66 0.68 0.73 0.83 0.92 0.99 1.01 0.97 0.89 0.81 0.72 0.67 0.63 0.62 0.57 0.53 0.50 0.49 0.48 0.45
1.83 1.84 1.82 1.82 1.70 1.75 1.69 1.54 1.51 1.37 1.34 1.20 0.97 0.90 0.85 0.87 0.79 0.70 0.66 0.68 0.74 0.70 0.62 0.57 0.59 0.65 0.74 0.85 0.92 0.97 0.97 0.91 0.87 0.83 0.80 0.75 0.70 0.63 0.58 0.54 0.55 0.57 0.58
2.52 2.52 2.42 2.34 2.22 2.08 1.95 1.83 1.74 1.53 1.38 1.20 0.92 0.79 0.74 0.67 0.64 0.63 0.59 0.58 0.58 0.54 0.54 0.54 0.51 0.49 0.55 0.62 0.68 0.78 0.82 0.84 0.85 0.85 0.78 0.75 0.73 0.67 0.62 0.58 0.59 0.62 0.62
3.07 2.87 2.73 2.66 2.45 2.22 2.04 1.91 1.69 1.52 1.34 1.15 1.06 0.90 0.67 0.54 0.52 0.48 0.45 0.45 0.44 0.45 0.50 0.51 0.46 0.42 0.41 0.45 0.46 0.51 0.58 0.64 0.70 0.74 0.75 0.79 0.77 0.71 0.68 0.66 0.66 0.69 0.69
3.54 3.27 3.15 2.94 2.64 2.40 2.16 1.91 1.67 1.52 1.35 1.20 1.18 1.13 0.91 0.68 0.50 0.39 0.36 0.33 0.31 0.29 0.30 0.31 0.30 0.31 0.32 0.33 0.37 0.42 0.45 0.54 0.62 0.70 0.76 0.76 0.77 0.74 0.73 0.73 0.72 0.73 0.75
4.00 3.74 3.57 3.24 2.90 2.54 2.23 1.94 1.68 1.51 1.39 1.26 1.13 1.14 1.04 0.85 0.59 0.41 0.31 0.24 0.21 0.21 0.21 0.21 0.23 0.25 0.25 0.27 0.29 0.36 0.40 0.45 0.52 0.59 0.64 0.70 0.75 0.76 0.77 0.79 0.81 0.85 0.90
3.44 3.30 3.15 2.93 2.63 2.29 2.03 1.77 1.50 1.33 1.30 1.19 1.03 0.88 0.78 0.69 0.59 0.46 0.31 0.23 0.19 0.18 0.17 0.16 0.18 0.20 0.23 0.25 0.30 0.34 0.36 0.37 0.41 0.44 0.46 0.50 0.54 0.57 0.59 0.62 0.66 0.75 0.83
2.89 2.65 2.48 2.30 2.07 1.84 1.62 1.47 1.32 1.17 1.07 0.97 0.84 0.74 0.66 0.58 0.49 0.44 0.38 0.27 0.23 0.19 0.17 0.15 0.16 0.17 0.19 0.22 0.26 0.33 0.35 0.33 0.35 0.35 0.35 0.34 0.36 0.41 0.46 0.50 0.54 0.61 0.69
2.30 1.94 1.73 1.56 1.40 1.23 1.13 1.07 0.99 0.89 0.81 0.72 0.62 0.54 0.49 0.48 0.44 0.41 0.36 0.28 0.23 0.19 0.16 0.15 0.16 0.16 0.16 0.18 0.22 0.30 0.24 0.24 0.26 0.26 0.25 0.25 0.25 0.28 0.33 0.39 0.46 0.54 0.61
1.80 1.48 1.27 1.15 1.07 0.98 0.86 0.81 0.74 0.65 0.56 0.51 0.47 0.42 0.36 0.31 0.28 0.27 0.26 0.24 0.19 0.15 0.13 0.12 0.11 0.11 0.12 0.13 0.18 0.25 0.20 0.20 0.19 0.18 0.17 0.18 0.18 0.19 0.20 0.24 0.30 0.37 0.45
1.37 1.18 1.03 0.92 0.75 0.61 0.56 0.54 0.50 0.44 0.37 0.33 0.29 0.28 0.26 0.23 0.21 0.19 0.19 0.20 0.21 0.18 0.14 0.12 0.10 0.10 0.10 0.11 0.15 0.18 0.15 0.17 0.16 0.16 0.16 0.16 0.15 0.15 0.16 0.18 0.21 0.24 0.27
0.91 0.79 0.68 0.60 0.52 0.45 0.40 0.38 0.36 0.33 0.28 0.25 0.22 0.20 0.19 0.19 0.18 0.17 0.17 0.18 0.21 0.21 0.17 0.12 0.11 0.10 0.09 0.09 0.11 0.10 0.11 0.15 0.13 0.13 0.12 0.11 0.10 0.10 0.11 0.12 0.13 0.14 0.16
0.66 0.55 0.47 0.40 0.38 0.37 0.35 0.30 0.26 0.22 0.20 0.18 0.16 0.16 0.16 0.14 0.15 0.16 0.16 0.16 0.16 0.19 0.18 0.13 0.11 0.10 0.09 0.07 0.07 0.08 0.10 0.10 0.09 0.07 0.07 0.08 0.08 0.08 0.09 0.10 0.12 0.13 0.15
0.61 0.50 0.44 0.41 0.36 0.32 0.27 0.25 0.23 0.20 0.19 0.16 0.13 0.13 0.15 0.15 0.15 0.14 0.13 0.13 0.13 0.15 0.17 0.10 0.07 0.07 0.10 0.12 0.12 0.14 0.14 0.15 0.13 0.09 0.09 0.10 0.10 0.10 0.10 0.12 0.14 0.15 0.16
0.45 0.37 0.31 0.29 0.29 0.27 0.23 0.21 0.20 0.17 0.14 0.12 0.10 0.10 0.10 0.10 0.11 0.09 0.09 0.08 0.09 0.12 0.16 0.14 0.10 0.09 0.12 0.15 0.17 0.17 0.09 0.08 0.12 0.09 0.09 0.10 0.12 0.13 0.14 0.15 0.15 0.14 0.12
0.35 0.31 0.26 0.22 0.21 0.20 0.17 0.16 0.15 0.11 0.08 0.07 0.07 0.07 0.07 0.08 0.08 0.07 0.08 0.07 0.09 0.10 0.16 0.20 0.17 0.15 0.14 0.13 0.16 0.14 0.14 0.20 0.12 0.09 0.08 0.09 0.10 0.11 0.10 0.08 0.08 0.08 0.06
0.27 0.25 0.20 0.16 0.12 0.10 0.09 0.09 0.09 0.07 0.06 0.06 0.06 0.06 0.06 0.06 0.06 0.07 0.07 0.09 0.13 0.17 0.20 0.23 0.19 0.15 0.14 0.13 0.20 0.20 0.18 0.19 0.17 0.11 0.11 0.09 0.09 0.06 0.05 0.04 0.04 0.05 0.05
0.20 0.18 0.14 0.10 0.08 0.06 0.05 0.05 0.04 0.03 0.03 0.04 0.04 0.04 0.04 0.05 0.06 0.06 0.08 0.11 0.18 0.23 0.24 0.24 0.21 0.17 0.16 0.20 0.23 0.24 0.23 0.19 0.15 0.12 0.14 0.13 0.14 0.16 0.16 0.12 0.08 0.06 0.04
0.14 0.11 0.10 0.08 0.06 0.04 0.03 0.02 0.02 0.02 0.02 0.03 0.04 0.05 0.04 0.03 0.03 0.04 0.06 0.11 0.18 0.22 0.23 0.25 0.24 0.25 0.23 0.27 0.32 0.32 0.32 0.33 0.27 0.19 0.22 0.17 0.15 0.21 0.22 0.20 0.13 0.08 0.06
0.13 0.10 0.06 0.06 0.05 0.03 0.01 0.01 0.01 0.02 0.04 0.06 0.08 0.09 0.06 0.03 0.05 0.09 0.08 0.08 0.10 0.12 0.18 0.26 0.30 0.30 0.31 0.34 0.43 0.42 0.43 0.43 0.38 0.30 0.35 0.30 0.24 0.26 0.19 0.14 0.13 0.11 0.08
0.13 0.10 0.07 0.05 0.06 0.04 0.01 0.01 0.00 0.03 0.06 0.07 0.08 0.09 0.10 0.09 0.08 0.07 0.06 0.07 0.12 0.15 0.16 0.20 0.30 0.30 0.27 0.30 0.40 0.44 0.44 0.43 0.42 0.41 0.45 0.46 0.33 0.28 0.19 0.27 0.24 0.17 0.12
0.12 0.09 0.07 0.06 0.08 0.07 0.02 0.01 0.01 0.04 0.06 0.05 0.05 0.06 0.07 0.10 0.08 0.08 0.08 0.12 0.16 0.19 0.14 0.18 0.24 0.29 0.34 0.39 0.43 0.45 0.52 0.58 0.54 0.48 0.52 0.53 0.44 0.36 0.29 0.34 0.33 0.23 0.21
0.12 0.08 0.07 0.08 0.09 0.09 0.03 0.01 0.02 0.04 0.07 0.06 0.08 0.09 0.09 0.08 0.07 0.07 0.07 0.15 0.22 0.20 0.22 0.28 0.44 0.61 0.67 0.65 0.55 0.52 0.60 0.65 0.64 0.67 0.61 0.60 0.56 0.46 0.41 0.35 0.37 0.39 0.43